This is the latest recevied weather packets stored in our database for station/object DG4MJS-10. If no packets are shown the sender has not sent any weather packets the latest 10 day(s).
| Time | Temp. | Humidity | Pressure | Rain* | Wind** | Luminosity | Snow |
|---|---|---|---|---|---|---|---|
| 1788095678 | 24.44° C | 50% | 1015.9 hPa | - | - | - | - |
| 1788094777 | 23.89° C | 53% | 1015.8 hPa | - | - | - | - |
| 1788092977 | 23.89° C | 53% | 1016 hPa | - | - | - | - |
| 1788092077 | 23.33° C | 54% | 1016 hPa | - | - | - | - |
| 1788091177 | 22.78° C | 57% | 1016.2 hPa | - | - | - | - |
| 1788090276 | 23.33° C | 56% | 1016.2 hPa | - | - | - | - |
| 1788089376 | 22.78° C | 57% | 1016.2 hPa | - | - | - | - |
| 1788088476 | 22.78° C | 56% | 1016.4 hPa | - | - | - | - |
| 1788087576 | 22.78° C | 58% | 1016.6 hPa | - | - | - | - |
| 1788086676 | 22.22° C | 59% | 1016.6 hPa | - | - | - | - |
| 1788085776 | 22.22° C | 59% | 1016.8 hPa | - | - | - | - |
| 1788084878 | 22.22° C | 57% | 1016.9 hPa | - | - | - | - |
| 1788083978 | 22.22° C | 59% | 1017 hPa | - | - | - | - |
| 1788083078 | 22.22° C | 59% | 1017 hPa | - | - | - | - |
| 1788082177 | 22.22° C | 58% | 1017 hPa | - | - | - | - |
| 1788081277 | 22.22° C | 60% | 1017 hPa | - | - | - | - |
| 1788080377 | 21.67° C | 60% | 1017.2 hPa | - | - | - | - |
| 1788079477 | 21.67° C | 60% | 1017.1 hPa | - | - | - | - |
| 1788078577 | 21.67° C | 60% | 1017.3 hPa | - | - | - | - |
| 1788077677 | 21.11° C | 60% | 1017.2 hPa | - | - | - | - |
| 1788076777 | 21.11° C | 60% | 1017.3 hPa | - | - | - | - |
| 1788075877 | 21.11° C | 61% | 1017.4 hPa | - | - | - | - |
| 1788074977 | 21.11° C | 61% | 1017.3 hPa | - | - | - | - |
| 1788074077 | 20.56° C | 64% | 1017.1 hPa | - | - | - | - |
| 1788073176 | 20.56° C | 65% | 1017.1 hPa | - | - | - | - |
* Rain since midnight (hover to see other rain measurements)
** Current wind speed in m/s (hover to see current wind gust speed)